Location: Artiguedieu
(43.5000°N, 0.5454°E)
Time: 06:57:40
(UTC+00:00)

AO-7 - Visible Passes

Search period start: 26 September 2021 00:00
Search period end: 06 October 2021 00:00
Orbit: 1440 x 1458 km, 101.9° (Epoch: 25 September)

Date Brightness Start Highest point End Pass type
(mag) Time Alt. Az. Time Alt. Az. Time Alt. Az.
26 Sep ? 03:09:20 10° NE 03:16:33 32° E 03:23:42 10° SSE visible
26 Sep ? 05:01:33 10° NNE 05:09:43 62° WNW 05:17:49 10° SW visible
27 Sep ? 02:13:01 10° ENE 02:15:34 12° E 02:18:05 10° ESE visible
27 Sep ? 04:01:34 10° NNE 04:09:52 65° ESE 04:18:04 10° S visible
28 Sep ? 03:02:29 10° NE 03:09:26 29° E 03:16:18 10° SSE visible
28 Sep ? 04:54:29 10° NNE 05:02:43 67° WNW 05:10:54 10° SW visible
29 Sep ? 03:54:35 10° NNE 04:02:48 59° ESE 04:10:56 10° S visible
30 Sep ? 02:55:40 10° NE 03:02:18 26° E 03:08:51 10° SSE visible
30 Sep ? 04:47:25 10° NNE 04:55:43 73° WNW 05:03:57 10° SSW visible
01 Oct ? 03:47:36 10° NNE 03:55:44 54° ESE 04:03:46 10° S visible
02 Oct ? 02:48:53 10° NE 02:55:09 23° E 03:01:22 10° SE visible
02 Oct ? 04:40:22 10° NNE 04:48:42 80° WNW 04:56:59 10° SSW visible
03 Oct ? 03:40:38 10° NNE 03:48:39 49° ESE 03:56:34 10° S visible
04 Oct ? 02:42:09 10° NE 02:48:00 21° E 02:53:47 10° SE visible
04 Oct ? 04:33:19 10° NNE 04:41:41 86° WNW 04:49:59 10° SSW visible
05 Oct ? 03:33:41 10° NNE 03:41:34 44° E 03:49:21 10° S visible
05 Oct ? 05:26:31 10° N 05:34:17 46° WNW 05:42:01 10° SW visible
